Regional Weather Roundup
Issued by NWS

Home | Current Version | Previous Version | Text Only | Print | Product List | Glossary On
Versions: 1 2 3 4 5 6 7 8 9 10 11 12 13 14 15 16 17 18 19 20 21 22 23 24 25 26 27 28
000
ASUS45 KBOI 200810
RWRID
WEATHER ROUNDUP FOR IDAHO
NATIONAL WEATHER SERVICE BOISE ID
200 AM MDT SUN APR 20 2014

NOTE: "FAIR" INDICATES FEW OR NO CLOUDS BELOW 12000 FEET
WITH NO SIGNIFICANT WEATHER AND/OR OBSTRUCTIONS TO VISIBILITY

IDZ012-014-200900-
SOUTHWEST IDAHO


CITY           SKY/WX    TMP DP  RH WIND       PRES   REMARKS
BOISE          MOCLDY    54  28  36 NW28G38   30.08R
CALDWELL       MOCLDY    54  30  40 NW21      30.13R
MOUNTAIN HOME  MOCLDY    54  27  35 NW16      30.08R
$$

IDZ016-017-200900-
SOUTHCENTRAL IDAHO


CITY           SKY/WX    TMP DP  RH WIND       PRES   REMARKS
BURLEY         CLEAR     53  30  41 W24G37    30.00R
JEROME         PTCLDY    54  28  36 W21G29    30.02R
TWIN FALLS     PTCLDY    52  29  41 SW22G31   30.06R
$$

IDZ019>023-200900-
SOUTHEAST IDAHO


CITY           SKY/WX    TMP DP  RH WIND       PRES   REMARKS
IDAHO FALLS    PTCLDY    48  32  53 SW6       29.97S
POCATELLO      PTCLDY    60  31  33 S16       29.97R
REXBURG        PTCLDY    52  30  43 S10       29.97R
$$

IDZ006-010-011-018-031-032-200900-
CENTRAL IDAHO MOUNTAINS


CITY           SKY/WX    TMP DP  RH WIND       PRES   REMARKS
MCCALL         CLEAR     40  28  62 NW9       30.09R WCI  34
HAILEY         PTCLDY    43  25  49 NW10      30.02R
STANLEY          N/A     44  24  45 VRB3      30.08R
SALMON         MOCLDY    54  25  32 NW13G22   29.98R
CHALLIS        CLOUDY    45  18  34 CALM      29.98R
$$

IDZ002-004-006-007-026-200900-
NORTHERN IDAHO


CITY           SKY/WX    TMP DP  RH WIND       PRES   REMARKS
LEWISTON       LGT RAIN  51  29  42 W14G24    30.15R
LOWELL           N/A     45  43  93 CALM      30.18R
COEUR D`ALENE  CLOUDY    46  34  61 SW15      30.08R
MULLAN PASS    LGT SNOW  30  28  93 SW13G22   30.02R FOG     WCI  20
$$



USA.gov is the U.S. government's official web portal to all federal, state and local government web resources and services.